Tracking 29967 objects as of 6-Dec-2024
HD Live streaming from Space Station
objects crossing your sky now

STARLINK-32533

Track STARLINK-32533 now!
10-day predictions
STARLINK-32533 is classified as:


NORAD ID: 61706
Int'l Code: 2024-195V
Perigee: 453.4 km
Apogee: 455.3 km
Inclination: 53.2 °
Period: 93.5 minutes
Semi major axis: 6825 km
RCS: Unknown
Launch date: October 30, 2024
Source: United States (US)
Launch site: AIR FORCE WESTERN TEST RANGE (AFWTR)
Your satellite tracking list
Your tracking list is empty




NASA's NSSDC Master Catalog

Two Line Element Set (TLE):
1 61706U 24195V   24340.71545957  .00001080  00000-0  36964-4 0  9998
2 61706  53.1617 133.4143 0001326  63.2003 296.9138 15.39627398  6670
Source of the keplerian elements: AFSPC